Wind_Speed
25 26 26 27 27 27 28 28 28 28 28 28 28 28 27 24 20 16 14 14 14 14 12 11 11 12 12 13 14 15 17 18 16 10 7 9 8 9 9 7 3 2 6 8 9 7 8 11 12 13 10 6 5 4 8 9 3 2 1 2 1 0 1 3 4 3 4 3 4 5 5 4 5 3 1 2 5 3 2 3 2 3 3 1 2 7 7 12
26 27 27 27 28 28 29 29 29 29 29 30 30 30 29 26 21 17 15 14 14 14 12 11 10 11 12 12 13 15 17 17 14 11 13 10 7 11 10 7 4 5 7 8 10 11 8 7 11 12 7 4 5 5 7 7 5 3 1 3 1 2 1 1 5 6 4 5 5 4 4 3 4 3 0 2 3 2 3 3 2 1 2 2 4 5 6 13
27 28 28 28 29 29 29 29 30 30 30 31 31 31 30 27 22 17 15 13 13 13 12 11 10 10 11 11 12 14 15 12 7 8 9 7 10 14 13 11 8 8 10 8 8 10 9 6 7 8 7 5 6 7 7 5 4 4 3 3 1 3 3 3 7 7 4 6 6 4 3 3 4 2 1 3 4 2 2 2 2 2 2 3 4 2 5 13
28 28 29 29 30 30 30 30 30 30 31 31 31 31 30 28 22 18 16 14 13 13 12 10 10 10 9 10 11 12 11 6 2 4 2 1 6 11 14 14 11 11 12 10 9 9 11 10 8 5 6 6 7 8 5 5 4 3 4 3 5 6 4 5 7 6 5 6 6 4 3 4 4 3 2 5 5 1 2 3 3 5 6 5 2 0 6 12
28 28 29 30 30 31 31 31 31 31 32 32 32 32 31 28 22 18 16 14 13 12 12 10 9 9 8 10 10 9 6 2 1 2 1 1 2 5 8 10 11 12 11 10 10 9 9 8 5 3 3 4 5 4 3 6 5 2 3 6 9 8 5 7 7 7 7 5 5 5 4 4 4 3 3 6 4 2 4 3 2 4 5 5 2 2 5 9
27 28 29 30 30 31 31 31 31 32 32 33 33 32 31 28 22 18 16 15 13 12 11 10 9 8 8 8 6 4 1 1 4 3 1 1 1 2 4 7 10 10 9 10 10 7 5 4 3 3 2 1 3 3 3 5 6 4 4 7 9 8 8 9 8 8 7 6 6 6 4 5 5 3 3 4 3 3 4 3 3 3 4 4 3 4 5 6
27 28 29 30 30 31 31 31 32 32 33 33 33 33 31 28 22 18 16 15 13 11 10 10 8 7 6 5 3 3 3 4 8 4 2 1 0 3 5 7 8 8 8 8 8 4 4 3 2 3 2 2 2 2 2 3 8 8 6 7 9 8 10 10 10 9 7 7 6 5 4 4 6 5 3 2 2 5 7 4 4 5 5 6 4 3 4 4
27 28 29 30 30 31 31 32 32 33 34 34 34 33 30 27 21 17 16 15 13 11 9 9 7 6 5 1 0 3 0 6 5 5 5 2 1 2 5 8 8 8 7 8 7 2 5 7 5 2 3 2 2 1 1 5 7 8 8 8 9 8 9 9 9 8 7 6 5 6 4 3 5 5 4 3 3 7 7 5 5 7 6 6 5 3 4 3
28 28 30 30 31 31 32 32 33 34 35 35 35 33 30 25 19 16 16 15 13 10 8 8 6 4 4 1 2 2 3 6 6 6 5 3 2 3 5 8 9 9 6 9 10 2 2 4 5 5 3 1 2 4 2 6 4 7 11 10 9 9 8 8 8 8 7 5 6 8 5 4 4 4 4 4 6 9 7 5 7 8 6 6 5 4 5 3
28 29 31 31 32 32 32 33 34 35 36 36 35 33 29 23 16 15 15 14 13 9 7 6 4 2 3 2 4 1 4 6 8 5 3 3 3 3 6 8 9 9 7 8 8 4 3 5 6 6 2 2 5 7 3 6 7 10 13 11 10 11 9 8 9 7 6 5 7 8 6 5 4 3 3 4 8 10 9 8 8 9 8 8 6 5 6 5
30 31 32 32 33 33 33 34 35 36 37 37 35 32 27 19 14 13 13 14 12 8 5 4 3 1 1 2 4 3 5 6 7 5 3 2 2 3 6 9 10 9 8 7 8 8 8 10 9 4 1 2 5 7 5 8 12 13 13 10 10 11 8 8 9 7 5 3 6 7 5 4 2 1 3 6 9 11 11 10 10 10 8 8 8 7 6 6
31 32 33 34 34 34 35 35 36 37 39 38 35 31 25 16 11 11 12 12 11 7 3 2 1 1 1 2 4 8 5 5 6 5 3 2 2 1 3 8 11 10 9 6 8 11 12 14 10 4 2 3 4 4 5 5 9 12 12 12 10 9 7 9 8 7 5 3 6 7 5 0 2 3 5 7 10 10 11 11 10 10 8 8 8 7 5 7
32 33 34 34 35 36 36 36 37 38 39 38 35 30 22 13 9 9 10 10 10 7 3 1 0 0 2 1 7 9 6 6 6 7 5 4 4 3 3 6 9 9 10 10 11 14 16 17 12 4 3 3 3 2 1 2 5 9 7 8 9 6 4 8 7 6 5 4 9 7 4 3 5 6 6 8 10 10 11 10 9 7 7 7 8 7 7 8
33 34 34 35 36 36 37 38 38 39 40 39 35 27 18 9 6 7 8 8 8 6 3 1 0 1 2 4 11 9 7 9 10 14 11 8 8 7 6 7 8 10 11 15 17 17 18 18 12 5 3 3 4 2 1 1 5 6 3 2 4 4 2 5 5 6 5 4 9 6 3 5 6 6 9 8 9 10 10 9 8 6 5 6 5 6 7 7
34 34 35 36 37 37 38 38 39 40 40 38 33 23 13 6 5 5 6 6 6 5 3 1 1 1 1 7 11 6 5 6 10 17 14 11 12 8 9 12 11 12 12 15 18 17 18 15 8 3 4 3 3 3 1 2 2 3 3 1 1 3 3 5 4 6 4 4 8 5 3 3 4 8 11 9 9 9 8 7 7 7 6 5 3 2 4 5
34 35 36 36 37 38 39 39 40 41 40 36 29 17 9 6 4 4 4 4 5 4 2 2 1 1 1 5 6 3 5 8 11 14 13 14 15 11 11 13 13 13 15 16 16 16 15 9 3 3 4 4 3 1 2 4 1 3 4 2 2 3 3 4 4 7 5 6 6 4 3 2 3 7 10 10 9 8 7 6 7 7 6 6 4 2 3 3
35 36 37 37 38 39 39 40 41 41 39 34 25 15 10 8 6 3 2 2 4 4 2 1 1 1 3 6 4 3 6 12 14 14 14 15 17 14 9 8 9 12 13 14 14 10 6 3 1 2 2 2 2 2 3 2 2 3 2 3 2 4 5 3 4 7 5 5 4 4 5 4 5 8 10 10 9 8 8 8 7 6 5 5 4 3 3 3
36 37 37 38 39 39 40 41 41 41 37 29 22 18 13 8 6 3 3 1 3 3 3 2 1 1 3 5 4 6 7 13 17 13 12 14 17 14 8 6 6 5 4 6 8 4 1 1 0 1 3 3 2 3 2 4 5 5 4 5 2 4 6 5 4 5 6 4 3 6 4 4 6 8 10 10 9 9 8 7 5 5 5 5 5 4 3 2
36 37 38 39 39 39 40 40 41 40 34 25 22 17 9 5 3 1 3 1 1 1 2 2 3 2 2 3 6 10 8 9 15 12 10 12 13 13 9 6 4 2 0 2 3 2 2 1 2 1 4 4 5 4 7 9 6 10 8 7 7 5 4 5 5 6 7 5 3 6 5 5 7 7 9 7 4 7 5 4 4 3 4 5 4 4 4 3
36 37 38 39 39 39 39 39 40 36 27 24 25 15 5 5 4 1 1 2 3 5 6 5 6 3 5 6 8 12 8 5 8 8 12 12 9 7 5 2 1 2 1 3 3 2 2 2 3 4 7 9 10 8 10 10 3 11 9 7 9 6 4 6 6 7 7 5 1 4 6 6 8 8 7 5 5 5 5 4 4 4 4 4 5 5 5 4
37 37 39 39 39 39 37 38 37 28 20 23 22 10 1 4 3 3 5 3 6 9 9 11 10 7 11 11 12 13 6 2 1 2 11 12 6 4 2 0 2 1 4 5 3 2 1 2 6 10 12 12 11 10 11 9 4 12 9 7 8 5 5 7 9 9 6 5 2 3 7 6 8 7 5 6 6 5 6 6 4 5 5 4 5 5 4 3
37 37 39 39 40 39 36 38 31 18 20 25 18 5 3 6 5 5 5 5 8 8 10 13 11 9 14 17 19 18 5 2 3 4 6 8 5 4 3 2 4 3 5 2 1 3 2 5 11 15 12 9 10 9 9 8 4 11 7 6 6 5 4 5 8 10 5 4 3 3 6 5 4 5 5 7 6 4 6 6 5 5 5 4 5 4 3 2
36 38 39 39 41 38 36 37 22 11 23 27 14 7 8 9 10 11 5 3 8 6 7 9 8 7 9 12 16 16 5 3 3 5 5 8 5 5 4 3 5 5 3 3 3 2 3 6 10 11 8 8 11 10 7 5 3 8 7 5 5 6 5 4 6 9 5 4 4 4 4 1 2 4 3 2 2 2 2 2 1 3 4 4 4 3 3 3
36 38 38 40 41 37 37 32 12 13 29 23 10 12 16 13 11 13 5 2 6 6 6 9 7 5 8 9 8 7 4 4 4 4 8 9 4 3 4 4 5 4 5 5 7 6 7 9 8 8 8 9 11 12 8 2 3 4 7 7 6 8 8 6 7 9 5 5 5 6 5 4 3 5 2 2 3 3 3 1 0 1 2 2 3 3 4 4
37 38 38 40 40 38 38 21 6 21 31 14 7 16 21 17 16 14 5 0 4 5 4 6 5 5 10 8 6 6 2 3 5 5 9 11 7 4 3 3 4 4 8 6 6 6 10 11 8 9 10 10 9 8 6 2 2 1 6 9 11 12 9 6 8 9 5 3 4 5 4 3 3 4 3 1 3 3 1 1 3 2 1 2 3 3 4 4
37 37 39 40 39 41 32 9 9 29 23 7 9 17 19 17 20 15 4 2 4 4 2 3 3 5 8 5 5 3 3 3 8 8 10 13 11 5 3 2 1 5 7 5 4 3 6 8 6 8 10 10 8 6 4 3 3 1 5 10 14 13 8 9 11 8 4 2 7 5 2 0 3 1 4 3 4 3 1 3 4 3 3 3 3 4 4 4
37 37 39 39 38 39 23 6 19 25 9 6 15 19 18 18 21 13 3 2 3 3 2 0 0 4 6 6 6 5 2 4 4 6 10 14 10 4 3 3 1 4 4 1 2 3 5 6 6 7 7 6 5 5 3 3 5 2 5 6 13 13 9 12 11 5 3 4 5 5 2 4 1 2 4 4 5 3 3 4 5 3 3 4 4 5 4 5
37 37 38 37 38 34 16 10 20 15 6 12 18 18 18 20 19 7 3 1 2 1 2 1 1 4 3 4 7 4 4 2 2 4 11 16 9 4 3 6 2 4 4 2 3 6 4 3 3 3 4 4 5 6 4 5 3 6 6 3 7 9 8 11 8 3 5 6 3 5 2 5 2 2 2 3 3 3 5 6 6 4 4 4 5 5 4 4
37 37 37 38 38 28 14 14 16 9 10 17 17 19 21 19 11 3 3 1 0 1 1 1 1 3 1 1 4 4 3 1 0 5 5 10 6 3 4 6 4 4 6 4 6 7 4 4 3 2 3 5 5 5 2 4 2 7 3 2 3 2 4 8 7 5 6 6 4 7 2 4 1 2 3 2 2 4 6 6 6 5 5 5 4 4 3 2
38 37 36 37 36 26 18 20 14 7 13 17 18 21 18 11 4 5 2 0 2 2 0 1 1 3 4 3 2 3 2 2 2 2 3 3 1 2 2 2 3 1 4 2 5 6 6 5 3 2 4 5 4 3 1 3 5 4 2 5 6 6 5 6 4 4 6 3 4 5 2 4 1 3 4 4 4 6 6 4 4 5 5 4 4 3 3 3
39 36 35 36 34 24 16 14 10 9 14 16 19 17 9 4 3 4 1 1 2 1 1 0 2 4 7 6 2 1 2 3 1 5 3 2 2 3 1 3 1 1 4 4 5 5 5 5 3 3 4 3 3 2 4 3 3 1 3 5 4 5 5 5 4 4 5 1 4 2 3 4 2 3 6 5 5 7 8 6 6 8 6 4 4 3 3 3
38 36 34 33 29 21 14 12 13 12 11 12 15 9 3 4 2 1 1 2 1 2 3 2 3 4 6 6 3 3 3 2 2 5 5 3 1 1 2 2 3 1 3 3 3 5 5 4 5 5 4 2 5 3 5 6 5 3 3 6 4 2 4 3 2 2 3 2 3 5 5 3 0 4 5 5 5 6 7 7 9 10 7 5 4 3 3 2
38 36 34 30 26 24 20 17 13 8 7 11 9 3 5 4 1 2 2 3 1 3 3 4 4 4 6 4 2 4 3 2 4 4 5 3 2 3 4 4 6 4 2 3 0 3 4 5 4 4 5 2 5 3 2 3 5 5 2 4 4 1 2 2 0 1 2 1 1 2 3 2 2 4 3 5 6 6 7 8 9 10 9 7 5 4 3 2
37 34 33 31 25 21 17 11 6 3 7 9 5 4 4 1 3 3 3 4 3 3 3 5 6 5 6 3 3 4 3 3 5 4 4 2 3 3 5 4 5 4 2 0 0 2 1 3 4 2 3 3 3 5 6 3 2 2 3 5 4 3 4 3 3 3 4 2 1 3 3 3 3 3 4 5 6 7 7 6 8 8 8 7 5 4 4 3
35 33 32 27 18 9 3 1 3 1 3 4 5 4 2 2 3 2 3 4 1 3 4 6 7 5 4 4 4 4 4 3 4 3 4 4 4 4 4 4 6 4 4 1 2 3 3 4 8 5 4 5 4 5 6 5 1 4 1 4 1 4 4 2 2 5 6 4 1 3 1 3 3 1 2 4 7 7 6 7 8 7 6 6 5 4 4 4
35 34 27 19 12 2 4 6 7 6 2 4 5 2 2 3 3 3 3 4 3 1 4 4 5 4 3 3 4 5 3 2 3 3 2 3 4 4 5 5 6 6 6 4 2 1 2 4 7 3 2 6 7 7 5 5 2 2 2 0 5 5 6 4 3 3 6 5 1 1 1 1 2 2 1 4 7 6 7 9 8 7 7 6 5 5 4 4
36 31 20 17 10 7 10 6 8 8 4 5 4 1 3 3 4 5 4 6 7 1 4 2 3 3 3 4 4 5 3 1 3 4 2 2 2 4 6 5 6 9 9 6 2 1 4 4 7 3 6 9 6 5 4 4 6 2 2 5 3 2 4 5 4 3 4 4 1 1 3 3 2 1 3 3 6 5 6 9 7 6 7 6 4 4 4 4
30 22 14 13 2 13 13 8 11 8 3 5 1 3 3 3 5 5 4 7 9 1 4 1 3 3 4 4 4 5 6 3 4 4 3 3 3 6 8 5 7 11 10 9 4 2 4 1 8 6 11 9 1 2 3 4 2 4 5 3 2 2 2 2 3 4 3 3 1 1 0 2 3 3 4 6 6 5 6 7 7 7 7 6 5 5 5 6
18 9 7 6 3 11 11 13 11 5 4 2 1 3 3 4 8 9 8 9 8 0 3 0 2 2 3 4 5 5 6 5 6 4 3 4 3 6 9 6 6 12 11 11 7 3 3 1 6 7 6 5 3 2 3 5 3 2 3 3 2 3 3 2 3 4 5 4 3 0 2 2 4 5 8 10 8 8 8 5 6 7 6 6 6 6 6 6
8 1 5 6 3 11 14 13 6 4 2 1 2 3 4 5 9 12 12 11 5 2 1 1 0 0 2 4 5 4 5 6 7 4 3 5 4 4 7 6 5 9 10 9 7 4 2 2 4 7 2 5 2 3 6 5 3 2 2 3 2 1 0 1 1 2 5 5 3 3 1 5 5 4 8 11 9 9 9 7 6 6 7 7 7 7 6 6
4 1 3 6 10 12 12 7 1 2 2 2 1 4 5 4 8 13 14 12 6 3 3 2 1 1 2 3 4 4 4 5 5 4 3 4 4 3 6 7 6 5 5 6 5 4 2 3 3 4 1 4 5 7 8 8 6 5 4 4 3 1 1 1 2 2 3 5 4 5 3 6 5 3 7 8 8 8 9 9 7 6 7 7 6 7 7 7
2 1 4 4 7 2 3 2 2 1 2 3 2 6 7 6 7 11 13 12 8 3 2 1 1 1 1 1 2 2 4 4 4 4 4 5 7 6 5 8 8 6 7 4 5 5 4 3 1 2 3 5 8 9 9 8 7 5 3 3 3 4 3 3 3 2 3 4 4 5 3 5 5 3 7 7 7 8 8 10 9 7 8 8 7 8 8 7
1 5 11 8 5 3 1 1 4 1 3 5 5 8 9 7 7 10 11 10 6 2 2 2 2 2 1 1 2 2 1 4 4 5 4 4 7 7 6 8 7 6 7 3 3 3 3 3 1 3 5 4 6 6 3 1 3 3 2 2 2 3 3 5 5 4 4 4 4 5 2 4 4 2 7 7 8 8 8 10 12 10 8 8 8 7 7 6
3 5 8 12 8 2 5 2 3 3 4 5 6 10 10 7 8 10 9 5 2 2 3 2 2 1 1 2 1 3 1 1 3 5 3 2 4 4 6 9 8 5 4 4 3 2 1 1 2 1 4 5 5 5 6 5 1 1 2 3 2 1 6 7 3 4 4 1 3 6 2 5 3 4 7 8 9 9 8 10 13 12 9 8 6 5 5 6
4 2 5 10 8 2 4 2 2 2 5 7 9 12 10 8 10 8 3 1 2 2 2 0 2 2 1 1 3 4 3 4 2 3 2 1 2 1 5 7 7 5 3 4 5 4 2 2 3 4 3 1 2 3 4 4 2 1 4 7 5 2 7 8 4 5 4 1 3 5 4 3 2 6 8 8 10 10 10 11 12 10 9 8 7 5 5 5
3 1 3 6 5 2 1 2 2 3 4 6 8 9 8 9 10 6 4 4 5 3 2 1 2 3 4 6 5 5 5 4 3 3 1 3 2 2 5 6 4 3 4 6 5 4 3 1 3 6 6 5 6 7 6 3 3 2 6 8 7 5 7 7 5 5 6 5 4 2 5 7 4 6 8 8 9 10 11 11 10 8 7 7 7 6 6 6
1 1 3 4 4 4 4 4 5 5 5 5 4 6 8 9 8 6 5 4 5 5 3 2 3 5 7 7 4 4 6 6 6 6 4 3 2 0 3 5 2 2 4 4 3 5 4 2 2 5 6 6 6 6 2 5 7 6 6 7 8 8 9 8 6 6 8 8 3 2 4 8 4 5 8 8 9 10 9 10 9 7 7 6 6 7 7 5
2 1 3 5 3 2 3 4 6 8 10 8 3 5 8 7 5 4 4 4 5 5 4 4 5 4 6 6 4 4 7 7 6 7 7 5 2 2 3 3 1 2 5 3 1 5 5 2 3 2 3 5 2 6 12 14 9 7 9 10 10 10 10 10 7 4 6 8 6 4 8 8 3 5 8 7 9 11 9 8 8 7 7 6 7 7 6 5
3 2 3 6 3 3 5 8 8 8 10 7 3 4 5 5 5 4 3 3 5 4 3 2 6 4 5 6 5 3 4 4 4 5 7 7 4 1 2 1 3 1 4 2 2 3 5 2 2 2 2 4 6 14 19 18 13 12 12 13 14 15 13 11 10 9 10 10 10 13 15 10 3 5 9 8 9 10 7 6 7 7 7 7 6 6 6 6
3 2 4 4 3 4 6 7 6 6 7 5 3 5 6 9 9 6 2 1 2 4 2 1 6 7 4 6 6 1 1 1 1 4 5 7 6 1 1 2 3 1 3 2 2 2 3 3 2 3 3 4 7 13 17 16 15 15 13 12 16 17 15 12 10 12 13 11 11 15 16 9 4 3 8 9 8 8 7 6 7 6 6 6 5 5 4 2
7 6 6 4 4 4 5 5 4 4 5 4 5 7 8 12 12 7 3 1 4 3 3 4 6 6 4 5 5 3 4 0 3 8 8 7 6 3 2 2 4 4 2 2 1 2 2 1 2 5 4 3 5 13 18 16 15 14 12 11 13 13 11 8 6 7 10 11 12 13 11 5 1 3 7 8 7 8 7 6 6 4 5 5 5 3 4 7
9 8 6 3 3 4 4 5 4 4 3 3 7 10 9 12 14 8 3 3 3 4 5 5 4 2 3 5 5 5 6 4 7 10 8 7 8 5 3 4 5 6 4 3 1 0 2 2 2 3 5 3 4 11 14 13 12 9 4 6 9 9 10 10 6 6 4 7 9 8 5 5 5 5 7 7 7 7 6 5 4 3 3 2 1 4 8 6
Wind_Direction
3 3 2 2 1 0 359 358 358 357 357 356 355 355 353 351 347 343 338 334 331 325 323 321 319 318 315 321 323 323 324 320 319 306 252 260 255 219 221 243 263 210 212 218 210 193 184 195 206 205 191 190 215 222 202 199 166 118 154 90 78 192 234 207 184 175 139 157 194 181 204 181 138 156 208 49 52 52 46 15 351 335 308 284 171 150 128 137
0 360 359 359 359 358 357 356 355 355 355 354 354 354 353 351 347 343 339 335 332 325 322 319 315 314 313 321 324 325 326 320 315 285 255 256 232 212 226 249 243 240 234 216 215 205 189 194 198 194 185 194 223 206 188 181 156 158 129 93 173 203 203 196 144 153 154 163 182 187 202 175 135 144 158 102 70 51 83 37 20 26 330 47 106 122 130 135
358 357 356 357 357 357 355 354 353 352 352 352 353 352 352 350 346 342 340 336 332 326 321 317 312 310 314 320 324 328 327 324 313 273 268 256 225 221 231 245 244 255 260 249 243 222 215 244 226 197 182 203 228 210 190 165 154 166 115 80 226 170 138 134 149 169 180 157 157 178 187 140 139 150 118 119 98 52 118 141 132 152 173 132 96 97 141 131
357 356 355 355 355 354 354 352 351 350 350 350 350 351 350 349 346 341 339 336 331 326 319 316 311 309 315 321 326 328 327 335 294 255 332 318 212 215 225 241 247 257 271 271 264 241 241 266 268 234 185 201 220 209 199 166 160 149 128 147 170 151 136 160 171 171 160 150 149 156 142 128 138 129 122 122 101 20 239 217 193 176 165 148 96 130 140 123
356 354 353 353 353 352 352 351 349 348 348 348 348 348 348 348 344 339 337 334 328 323 317 312 309 310 317 324 329 326 333 35 282 260 4 34 170 197 216 235 245 254 265 266 266 260 257 254 254 259 204 210 208 203 229 177 154 78 116 149 156 153 145 162 166 154 155 152 142 143 136 138 128 109 142 132 123 221 213 211 206 173 154 148 134 144 123 107
354 352 352 351 351 351 349 349 348 347 346 346 346 346 346 346 342 337 335 331 326 319 312 307 307 312 322 329 332 330 35 150 284 285 298 8 170 222 219 233 242 246 248 258 273 275 265 233 206 234 204 203 184 189 243 174 132 96 128 147 155 157 147 155 161 159 162 154 154 159 151 140 120 127 174 153 173 197 157 147 152 142 133 142 124 119 117 101
353 352 351 350 350 349 348 347 346 346 345 344 344 343 344 343 341 336 333 329 323 316 305 301 305 311 328 342 343 26 97 260 279 253 223 25 103 234 218 223 226 227 232 256 279 285 300 303 260 220 144 92 148 205 247 131 116 122 142 160 159 153 149 155 163 167 167 163 166 151 131 138 138 140 148 166 175 127 125 141 143 130 127 137 108 99 138 118
353 352 351 350 349 348 347 345 344 345 345 343 342 341 342 341 338 334 333 329 319 314 301 295 304 313 334 347 176 32 36 255 250 183 201 217 162 207 202 201 203 215 229 252 261 293 339 322 309 322 45 72 121 351 205 120 115 133 145 163 158 146 148 150 155 164 166 163 146 128 132 169 166 138 128 171 137 119 134 151 146 137 133 140 122 135 166 137
355 354 353 351 350 348 346 344 344 344 343 343 340 340 340 339 336 332 333 329 319 313 296 292 303 318 341 321 142 25 268 220 178 171 195 205 204 200 192 191 198 211 229 256 257 267 333 307 313 328 349 299 5 357 201 153 140 151 149 161 157 142 143 142 150 162 163 159 138 136 152 191 185 126 125 177 145 136 150 152 156 150 146 156 150 166 172 159
356 355 354 352 350 347 345 344 344 343 343 342 339 338 339 338 333 331 332 329 322 313 296 288 297 347 359 16 102 70 255 193 168 178 184 192 214 204 198 195 196 208 227 263 263 236 225 251 291 302 284 314 351 326 266 156 150 150 149 157 152 142 143 148 157 163 152 154 154 148 159 183 187 118 135 190 157 153 161 162 168 160 163 171 165 181 174 168
356 356 354 351 349 347 346 345 343 343 342 341 338 338 338 336 331 330 332 329 323 321 311 283 286 20 27 76 110 197 229 187 170 155 153 202 233 218 210 202 195 205 225 259 271 256 250 266 292 326 313 1 352 326 358 115 141 145 144 142 141 138 141 153 156 158 144 157 171 144 130 157 167 162 198 189 167 164 165 167 173 169 178 178 166 180 174 171
355 354 353 351 349 347 346 345 344 343 342 340 338 337 337 334 330 330 332 330 326 335 342 293 300 44 54 86 195 225 221 200 183 154 174 242 275 247 212 210 205 208 220 238 274 278 281 289 308 350 292 334 357 337 18 82 137 144 139 130 137 137 144 164 160 167 160 150 168 127 77 50 207 221 211 176 169 169 162 170 180 177 184 179 164 170 176 178
354 353 352 350 348 346 346 345 344 343 342 340 337 337 335 329 329 330 334 333 331 345 3 357 337 22 57 139 237 251 276 270 225 195 223 251 253 247 210 213 215 221 229 235 264 284 292 296 305 313 280 316 319 246 348 351 134 141 140 124 131 121 142 177 167 172 155 135 166 130 60 264 243 220 196 173 172 165 164 177 180 176 179 173 166 170 176 178
353 352 350 348 347 346 345 345 344 343 342 339 337 338 332 327 332 329 337 336 338 358 12 58 145 86 77 256 266 278 288 283 242 218 224 225 222 237 232 221 225 234 240 246 261 279 287 293 302 305 280 238 240 265 7 83 127 131 112 79 117 105 156 194 172 160 138 151 173 125 83 234 243 208 187 185 181 167 171 179 171 164 161 169 183 175 174 181
353 351 349 348 346 345 345 345 343 343 342 339 339 339 330 323 324 321 338 340 342 356 0 31 178 124 32 278 283 289 251 255 237 222 223 219 214 225 230 224 227 237 246 251 258 269 276 288 307 300 281 259 258 308 11 94 132 143 107 348 345 95 169 203 185 175 157 166 176 131 105 232 238 195 184 187 187 174 171 175 174 168 155 164 189 189 198 202
351 350 349 347 345 344 344 344 344 343 341 339 340 341 331 311 304 313 328 348 349 343 4 51 93 123 41 279 285 299 237 223 227 227 227 224 222 228 227 223 230 238 243 249 253 262 268 280 295 246 267 285 263 251 37 50 211 200 135 173 211 109 159 199 195 207 187 150 179 178 144 199 228 193 188 190 188 172 159 174 184 177 168 169 171 203 227 244
350 350 348 346 344 343 343 344 344 343 341 341 341 340 327 302 291 289 265 356 343 311 298 344 6 68 258 276 289 282 232 214 224 238 231 222 227 233 219 211 232 238 241 252 258 265 269 256 250 259 283 289 255 116 54 17 194 216 114 129 179 144 156 190 195 211 194 149 172 171 153 194 200 182 189 195 185 159 157 180 188 180 177 177 184 195 198 239
349 348 347 346 344 343 343 343 345 344 341 343 345 339 333 317 299 267 204 291 329 307 300 296 16 71 259 283 286 266 247 218 223 235 225 218 226 231 225 213 229 241 260 277 266 255 240 233 95 333 318 312 293 106 146 229 171 173 169 125 156 171 163 186 186 191 186 156 127 130 155 203 179 176 194 199 182 160 167 179 176 180 180 182 198 198 191 211
348 348 347 345 343 342 342 344 345 343 339 347 352 346 351 4 350 142 160 143 17 296 284 239 171 147 292 278 266 278 281 217 213 220 212 213 219 224 236 234 209 140 58 311 286 246 179 308 16 335 298 287 260 206 202 230 175 159 168 144 160 176 175 193 180 175 165 125 100 135 155 177 167 186 196 189 157 140 155 165 148 166 187 190 200 205 201 193
347 347 346 344 343 341 341 344 345 342 342 350 354 355 17 19 12 10 316 175 195 234 252 235 203 236 298 288 289 298 302 184 191 201 198 203 201 202 230 251 101 62 152 202 272 281 163 252 286 239 246 250 255 249 230 243 162 139 148 147 165 163 175 190 162 166 153 105 125 161 138 162 181 199 189 142 102 119 153 177 167 172 192 202 202 209 207 203
346 346 345 343 342 340 341 343 344 347 354 351 353 7 17 337 1 331 322 278 232 223 236 250 232 240 266 268 286 295 306 108 196 201 187 193 165 156 228 99 94 311 246 217 251 317 105 237 257 242 239 241 252 263 259 268 114 130 148 151 165 169 185 183 156 167 154 101 202 165 122 160 188 195 178 124 125 162 183 187 191 193 195 203 207 211 202 211
345 345 344 342 342 340 340 343 343 353 0 350 352 12 272 309 344 340 331 304 276 226 221 253 250 250 258 260 269 271 281 73 297 295 182 176 148 162 222 137 139 224 257 235 304 340 324 247 246 248 251 258 265 269 273 286 103 130 150 143 163 183 173 166 157 170 155 103 198 177 125 169 191 168 163 151 161 185 193 197 196 192 197 202 207 213 196 204
344 343 343 343 341 339 339 342 342 356 355 345 334 318 321 330 338 341 338 277 290 252 213 239 241 247 256 264 264 252 233 158 229 273 207 166 153 174 177 156 172 218 248 188 187 225 256 247 249 260 274 284 282 282 286 305 77 134 153 139 172 190 163 165 176 175 153 105 162 148 107 254 355 70 113 158 165 133 160 225 191 176 208 213 199 191 188 201
342 342 343 341 341 340 338 341 347 354 348 341 323 334 352 353 342 348 356 219 287 273 226 220 217 223 238 253 254 223 195 180 186 242 207 168 140 163 172 173 171 218 240 199 191 209 244 256 264 280 278 265 270 281 284 315 67 154 170 157 173 193 188 178 171 165 128 67 120 119 66 333 356 71 74 6 43 70 80 62 82 197 224 172 160 181 193 198
340 341 341 341 342 339 337 342 359 345 342 338 343 350 356 355 348 355 15 106 301 279 234 209 199 230 239 233 218 204 160 198 208 209 194 178 163 149 193 191 146 216 242 223 206 222 251 261 268 276 276 271 265 263 256 190 97 210 197 180 172 187 195 162 148 148 112 51 178 149 79 311 314 94 150 287 77 86 64 187 216 224 198 151 160 203 212 205
338 339 340 341 341 340 342 351 333 337 334 320 345 348 348 348 345 349 37 56 314 262 202 172 165 212 233 210 179 160 81 252 229 192 188 195 186 155 186 227 138 216 229 223 220 226 247 254 258 259 264 269 261 243 236 179 100 1 222 183 168 183 184 149 156 153 125 162 202 198 99 235 287 117 193 211 124 142 219 233 228 198 184 183 183 214 215 208
336 337 339 339 340 343 343 311 322 332 321 312 341 343 339 339 337 342 57 40 314 228 171 246 154 172 200 192 155 104 89 259 232 175 190 199 191 130 179 253 305 221 220 158 238 247 232 243 258 259 256 253 244 243 248 116 98 274 250 156 156 186 184 157 168 161 122 132 167 216 139 107 243 220 197 180 121 151 239 250 247 219 196 195 198 220 217 206
335 335 337 336 337 340 331 299 319 323 308 331 342 338 333 334 335 349 96 29 310 186 169 230 224 167 187 189 158 148 215 209 81 212 199 188 184 105 182 236 212 236 270 129 233 263 225 219 263 282 292 260 223 222 220 99 95 252 255 115 144 182 173 154 157 124 109 107 136 225 156 90 300 288 154 147 127 190 231 233 235 225 210 207 205 211 208 205
334 333 335 334 334 338 332 307 301 296 332 343 341 333 330 332 340 60 91 42 124 297 207 119 146 176 178 171 179 224 248 53 98 239 190 178 192 100 180 222 187 248 278 190 216 264 238 217 241 287 300 257 238 241 205 103 187 245 252 29 53 75 112 125 129 119 100 96 170 219 169 102 301 280 171 170 203 213 221 224 219 213 206 200 196 181 164 162
332 331 333 332 330 332 325 306 291 307 344 339 331 329 328 330 18 77 21 291 163 279 283 62 238 156 136 157 240 260 239 299 264 172 119 170 237 39 194 221 146 208 309 256 242 262 252 253 259 263 246 222 226 281 329 138 204 235 34 36 19 10 38 86 108 111 83 53 236 232 193 124 135 260 208 197 217 196 187 198 193 192 193 180 176 169 160 161
330 329 331 329 325 322 312 301 305 330 331 326 328 331 337 357 70 90 342 196 163 246 205 242 213 144 146 173 232 254 193 279 235 127 150 214 32 23 1 9 2 10 0 329 299 298 295 291 278 258 238 167 85 358 340 333 269 250 63 59 30 349 21 45 12 51 87 262 246 183 93 93 106 246 232 216 209 179 164 169 166 168 174 168 169 170 164 166
329 328 327 326 321 308 285 285 306 319 319 326 335 341 43 54 36 150 246 333 7 208 196 196 194 157 164 179 210 206 168 252 212 138 158 188 112 182 179 167 186 39 345 282 302 321 312 272 253 267 264 116 84 18 340 344 352 20 60 66 64 341 14 43 1 50 122 200 215 150 111 79 270 253 239 204 186 173 163 164 161 159 161 164 169 167 154 148
329 328 325 324 318 301 288 293 304 314 325 333 344 21 80 69 279 226 239 281 226 185 159 153 171 154 152 166 233 211 164 222 230 170 161 158 126 209 240 215 171 133 224 231 335 326 314 304 294 301 295 285 112 97 333 320 357 16 74 102 108 107 64 106 141 75 125 109 272 199 98 79 289 290 241 180 168 167 159 159 160 155 157 162 164 152 137 133
330 329 325 320 314 300 290 293 297 314 327 338 18 65 63 72 245 242 243 246 203 174 151 147 152 139 146 183 235 199 153 225 226 161 148 116 90 205 254 255 199 158 151 300 24 199 183 313 282 219 249 268 131 151 177 173 353 309 188 135 131 164 145 166 181 148 148 140 266 313 51 129 208 259 216 171 141 141 142 148 150 147 152 153 145 140 134 143
331 329 326 320 314 305 286 147 122 135 312 6 56 72 94 225 253 261 252 254 202 161 161 145 136 133 173 214 244 215 163 202 218 148 145 161 153 192 212 235 222 172 121 114 243 202 161 233 251 236 206 192 181 196 168 115 27 265 159 85 137 193 151 114 141 145 137 116 2 341 38 193 208 270 209 145 116 114 115 124 134 138 144 139 139 152 153 160
334 334 330 319 312 278 137 123 136 154 149 74 64 84 202 227 240 244 257 291 313 139 124 116 123 131 198 215 256 243 181 155 197 169 175 186 180 196 197 217 214 175 162 180 225 206 167 253 270 289 260 216 197 197 170 126 164 274 11 333 234 186 132 100 78 82 88 95 349 330 114 267 26 38 232 136 111 100 106 122 133 136 136 138 150 163 161 158
337 337 326 312 311 167 156 147 157 161 116 80 91 206 247 251 239 247 280 316 310 307 104 110 156 151 190 202 241 226 172 141 207 186 192 197 222 213 201 220 212 194 185 176 218 222 157 270 287 231 233 245 212 184 201 162 147 151 277 242 247 53 90 100 103 71 59 93 257 274 149 165 134 174 244 150 119 110 117 124 122 118 120 123 128 133 133 129
333 330 311 312 315 156 162 167 163 157 89 64 63 252 250 249 246 254 285 305 297 265 106 129 183 169 179 193 240 204 155 161 207 196 186 195 248 219 194 204 217 214 194 158 188 261 123 316 294 237 214 229 195 119 261 289 167 178 230 227 89 56 347 37 117 136 105 109 178 305 13 181 189 197 193 171 154 146 139 128 123 120 115 111 104 94 90 89
332 326 315 334 137 154 157 166 164 119 61 61 282 247 245 264 270 277 287 291 289 259 92 136 193 187 181 188 230 198 154 173 196 191 171 178 239 227 196 191 213 220 202 158 172 231 109 115 289 274 219 181 73 92 219 283 300 191 275 321 70 148 176 170 154 142 129 137 160 186 340 265 227 205 178 175 171 158 155 145 136 133 122 115 106 92 84 79
347 326 318 350 146 165 156 159 150 62 73 204 224 252 301 297 286 289 288 285 280 155 144 268 270 17 209 210 224 195 159 178 184 174 181 189 217 244 215 195 200 217 201 164 172 195 129 172 264 298 289 129 132 225 195 202 196 159 258 283 283 293 122 138 144 119 126 135 144 137 241 262 247 204 172 173 172 165 159 150 145 140 128 117 106 100 90 76
351 331 311 47 107 152 151 139 65 78 186 268 241 263 290 278 279 292 294 294 286 188 178 212 213 232 254 253 238 198 163 184 188 171 191 203 199 242 222 189 186 201 168 150 184 189 162 193 234 299 289 156 216 224 191 180 175 159 185 213 202 186 74 32 315 318 103 123 148 146 173 262 260 188 169 167 161 160 153 142 140 133 119 106 96 102 103 100
353 314 266 78 91 141 115 89 285 189 205 277 241 253 269 262 272 289 297 300 290 249 187 153 227 235 295 314 266 196 163 192 207 186 197 206 196 216 223 188 185 173 139 153 213 196 156 142 118 284 235 214 231 222 196 181 164 147 182 202 151 128 128 152 211 249 80 99 118 111 131 259 267 153 143 144 142 146 142 130 120 109 103 103 108 112 111 116
21 296 284 306 320 294 50 314 291 290 246 258 251 260 269 268 271 280 288 291 288 301 25 30 18 36 41 346 357 355 208 202 211 201 206 223 214 216 199 174 168 148 138 164 229 205 163 118 80 292 290 303 286 270 271 264 117 122 252 250 146 139 141 147 167 155 117 126 123 87 84 264 289 91 121 129 126 125 122 113 106 103 105 115 123 118 118 135
315 279 284 320 330 173 152 220 270 266 270 285 298 295 292 280 267 268 269 271 303 36 38 10 12 37 245 227 26 354 325 191 241 223 198 243 250 219 179 167 154 137 166 193 174 161 194 139 100 24 359 354 336 329 327 324 342 164 288 314 308 101 101 98 98 104 100 147 135 112 151 252 292 88 109 112 111 107 100 101 107 117 127 129 126 125 139 150
312 249 250 313 326 172 168 207 223 268 307 322 312 303 305 297 284 279 265 306 8 68 110 285 281 255 260 52 24 352 31 64 323 261 211 315 300 224 181 172 150 136 170 170 135 110 128 146 116 108 109 167 197 210 248 268 269 304 13 17 360 32 110 118 108 98 107 90 73 102 165 225 3 79 101 104 108 103 93 101 114 126 134 133 135 146 157 154
344 343 273 314 334 13 329 309 2 355 325 327 314 300 310 313 306 321 30 31 2 16 100 162 286 318 13 31 20 355 8 28 2 330 245 204 219 199 174 159 149 155 154 146 127 96 94 148 145 143 160 180 190 219 231 179 110 77 41 36 32 61 112 124 107 121 145 116 45 3 162 143 106 103 113 108 106 105 107 118 126 128 131 137 144 156 167 165
27 354 341 343 334 350 351 343 7 0 315 317 312 287 309 319 315 340 16 22 1 2 14 16 16 28 25 21 20 358 342 350 12 3 319 250 226 254 122 117 130 168 138 134 129 102 87 305 232 168 183 201 214 245 250 87 83 88 74 49 44 73 105 113 110 148 150 113 67 290 134 120 123 126 121 116 111 114 124 132 134 133 135 139 150 167 176 168
335 306 5 7 335 338 348 318 325 325 312 312 295 270 297 311 313 336 342 331 354 18 32 354 349 38 56 47 42 2 342 353 19 6 333 312 317 29 45 44 319 143 104 66 26 108 110 256 239 159 243 260 311 61 83 85 73 70 77 70 62 70 98 109 105 133 131 114 133 141 93 83 84 105 111 118 121 124 132 133 131 130 132 144 162 170 171 169
330 290 351 7 342 284 276 279 293 308 309 311 301 278 293 311 313 298 296 331 343 360 59 359 310 331 56 68 73 36 353 0 2 346 336 328 326 54 67 356 294 305 89 75 313 92 110 235 245 85 324 326 60 87 95 93 85 71 63 67 73 71 75 85 88 88 85 94 113 106 87 73 57 101 110 113 115 119 124 124 124 127 134 153 167 165 171 184
359 328 338 349 319 284 274 281 302 312 307 315 319 302 318 339 329 288 263 30 326 314 1 275 285 311 16 67 75 42 287 133 181 277 310 325 322 333 125 200 230 276 71 87 305 20 94 239 257 87 43 9 74 96 93 89 90 84 70 67 76 76 67 61 73 86 87 91 96 92 87 71 12 84 112 113 114 116 122 126 125 133 147 163 175 180 178 133
348 324 323 325 303 297 292 302 325 320 309 338 348 328 337 342 325 287 262 206 194 229 290 278 294 320 352 33 36 308 286 331 222 250 264 280 273 242 219 218 177 155 120 111 339 28 94 250 332 69 62 17 86 97 88 82 79 75 74 76 75 77 78 68 61 81 104 115 98 86 93 104 158 140 115 112 116 116 124 128 127 153 177 180 180 149 75 65
346 329 327 321 285 292 305 314 331 332 313 330 338 333 333 328 315 291 268 299 253 214 239 262 291 324 342 355 343 281 278 291 271 264 262 257 251 240 246 238 182 154 154 150 107 58 125 103 35 78 81 54 98 105 96 84 70 56 60 94 90 93 96 88 61 38 74 119 109 105 136 167 186 159 116 110 117 120 135 146 146 178 210 259 323 66 80 94
Height
823 821 819 817 815 813 811 810 808 806 804 802 800 799 797 795 793 792 791 790 789 788 788 787 786 785 784 783 782 781 779 778 776 776 774 768 765 766 766 766 767 769 770 770 772 774 775 777 778 779 783 785 785 784 782 781 782 791 802 811 817 817 813 808 808 808 808 809 809 808 806 809 811 807 800 798 802 804 804 803 800 798 795 793 793 793 794 796
823 821 819 817 815 813 811 809 807 805 803 801 799 798 796 794 792 791 790 789 788 787 787 786 785 784 783 783 781 779 778 776 775 773 768 764 764 765 764 765 767 768 767 769 770 770 774 776 775 778 783 787 784 780 780 778 780 792 801 810 814 810 805 799 799 801 802 804 805 803 803 805 806 804 800 805 811 807 809 808 804 803 799 795 793 793 795 795
823 821 819 817 815 812 811 808 806 804 802 800 798 796 795 793 791 790 788 788 786 786 785 784 784 783 782 782 780 780 777 775 774 769 763 762 763 763 763 764 765 766 765 767 768 768 770 770 771 776 783 788 782 778 780 777 780 788 796 812 811 801 801 797 796 798 797 798 802 804 801 803 803 800 801 807 812 810 812 811 808 808 804 799 796 794 796 796
822 821 818 816 814 812 810 808 805 803 801 799 797 796 794 792 790 788 787 786 785 785 784 783 783 782 782 780 780 780 776 778 775 764 761 762 762 762 763 763 763 765 764 764 765 766 766 766 768 771 780 787 779 774 778 776 780 785 792 807 803 796 802 798 794 795 794 796 800 802 802 804 800 798 802 806 813 815 811 807 806 806 803 800 798 796 797 797
822 820 818 816 814 812 810 808 805 802 800 798 796 794 792 791 789 787 786 785 784 783 782 782 782 781 782 780 781 777 778 788 776 760 762 761 761 762 762 762 763 763 762 763 763 762 764 764 767 770 777 783 777 774 776 770 772 785 790 793 792 793 800 796 791 793 793 795 798 801 803 803 799 799 803 805 812 813 805 801 800 800 799 799 798 797 797 797
822 819 817 815 813 811 809 807 804 802 799 796 795 793 791 790 788 786 785 783 783 782 781 781 780 781 781 779 780 777 782 790 770 759 763 760 761 761 761 762 761 762 762 762 760 760 763 763 769 775 777 779 778 777 776 766 768 788 794 788 788 790 794 793 790 792 792 795 799 800 799 797 801 805 802 803 807 802 796 796 796 796 796 796 797 797 798 798
821 819 817 815 812 810 808 806 804 801 799 796 793 791 789 788 786 785 783 782 781 780 780 779 780 780 780 780 779 778 782 780 762 760 763 759 762 760 761 762 760 762 761 761 759 760 762 764 771 773 776 780 780 777 774 769 769 786 796 790 788 787 789 790 789 791 791 795 796 794 796 799 805 806 802 803 801 795 793 793 793 795 795 796 797 797 798 799
820 819 816 814 812 809 807 805 802 800 798 795 792 790 788 786 785 784 782 781 779 779 779 778 779 779 779 780 779 782 783 771 759 760 761 760 762 759 761 761 761 762 760 760 759 760 763 766 769 767 776 780 776 775 772 776 781 785 792 790 786 787 787 787 788 791 792 793 794 794 800 802 801 801 803 805 800 794 793 793 793 794 796 797 798 798 798 798
820 818 815 814 811 808 806 803 801 799 796 793 791 788 786 784 783 782 781 780 778 779 777 777 778 778 779 778 779 785 777 762 758 760 760 760 760 759 761 759 761 761 759 760 756 761 766 767 767 764 774 774 771 774 770 782 791 783 785 787 786 788 788 788 791 792 792 792 794 800 805 802 797 799 805 803 798 795 793 794 794 795 797 798 798 798 797 798
820 817 815 813 810 808 805 802 800 797 794 792 789 786 785 783 782 780 779 778 777 777 776 777 777 777 779 776 781 786 769 757 760 760 759 760 759 760 760 759 760 759 759 758 756 760 762 763 762 757 764 768 769 771 767 777 782 775 780 784 785 788 787 789 793 792 792 793 794 801 807 802 796 801 810 802 794 793 794 796 795 795 798 797 797 796 796 797
819 817 815 812 809 807 803 801 798 795 793 789 787 785 783 781 780 779 778 777 776 776 776 776 776 777 778 776 784 782 762 757 761 758 760 759 759 759 758 759 758 758 758 757 757 757 757 757 754 755 765 768 770 771 766 767 770 771 778 787 789 788 789 791 793 794 794 796 794 797 805 803 800 805 808 799 792 792 794 797 795 795 797 795 796 796 795 796
818 816 813 811 808 805 802 800 797 794 791 787 785 783 781 780 779 778 777 776 775 776 776 776 777 777 776 778 780 770 757 759 760 758 759 758 759 759 757 758 757 758 758 756 756 754 755 753 751 763 769 766 773 778 771 763 767 773 776 791 797 793 797 795 792 793 793 797 793 794 810 814 809 808 801 793 791 791 794 797 796 796 796 794 794 794 795 795
817 815 812 810 807 804 802 798 795 793 789 786 783 781 780 778 777 777 776 776 775 775 776 776 776 775 778 779 768 758 756 759 759 759 758 758 759 758 757 758 757 757 757 756 755 753 754 753 752 761 761 765 776 774 766 761 769 779 779 789 799 803 807 797 791 793 793 796 789 795 821 824 811 805 796 791 791 793 797 798 796 796 795 794 793 793 793 793
816 814 812 809 806 803 800 797 794 791 787 785 781 779 778 777 777 776 775 775 774 775 776 776 776 775 779 774 758 754 756 756 759 758 757 757 757 758 757 757 757 757 756 756 754 753 754 752 752 756 756 762 767 762 766 770 774 785 789 791 800 811 813 797 792 796 798 797 788 797 823 822 808 802 794 789 789 793 798 798 796 796 795 795 794 793 793 791
816 813 810 808 805 801 799 796 793 789 786 782 779 778 776 776 776 775 775 775 774 775 775 775 775 775 780 772 756 754 755 754 756 755 756 756 756 757 756 756 756 755 755 755 754 753 753 752 756 763 762 756 759 769 781 784 781 786 799 809 806 809 812 800 792 794 798 797 790 801 821 819 807 800 792 788 789 792 797 797 795 795 796 796 796 795 795 792
815 812 809 806 803 800 797 794 791 787 783 780 778 776 775 775 775 774 775 774 774 775 774 776 775 776 783 773 755 753 754 753 753 753 754 754 754 755 755 755 755 754 754 753 752 752 751 754 758 762 763 762 768 779 789 796 796 790 799 815 812 810 815 807 795 789 791 795 796 801 814 817 807 798 791 788 789 792 797 798 795 796 796 795 796 795 795 794
814 811 808 805 802 799 795 792 789 785 781 778 776 774 773 773 773 774 774 774 775 773 773 775 774 777 776 762 756 757 752 751 751 751 752 752 753 754 754 756 754 753 753 752 753 753 754 758 763 764 766 771 773 780 798 810 809 800 799 808 809 808 813 811 802 791 787 794 800 801 806 809 802 796 793 789 789 794 797 798 796 796 797 796 795 795 795 796
813 811 807 804 801 798 794 791 788 783 780 777 775 773 772 772 772 773 773 773 773 773 776 775 775 784 777 761 760 757 749 749 750 749 751 751 752 753 754 755 754 754 758 759 757 758 760 762 767 775 777 778 777 785 804 806 799 801 802 807 810 807 808 809 803 793 789 794 799 802 806 805 801 797 794 790 789 794 797 797 798 797 798 798 796 796 795 796
813 810 807 803 800 796 793 790 787 783 779 776 775 772 771 771 771 771 772 773 775 777 779 776 775 781 776 763 756 750 746 747 748 749 749 749 751 752 753 753 754 758 769 774 769 763 766 770 777 787 788 783 779 782 790 786 781 788 794 800 806 807 806 801 795 788 788 796 801 802 806 805 803 800 795 792 791 795 799 798 799 800 798 798 798 797 796 797
812 809 806 802 799 795 792 790 787 783 779 777 775 772 774 776 778 778 773 772 773 772 771 769 768 769 766 759 752 749 747 746 748 749 748 749 749 752 753 754 758 765 774 780 777 765 766 782 791 791 787 779 773 771 772 771 770 779 788 795 798 802 804 794 789 786 782 796 805 800 803 806 803 799 795 795 795 797 800 800 801 801 800 799 798 797 797 797
811 808 805 801 798 794 792 789 786 783 781 779 776 776 780 783 786 786 777 770 765 762 765 761 760 764 760 754 751 749 750 750 749 747 748 748 748 757 761 760 771 780 776 775 775 766 770 791 792 779 774 769 766 764 764 765 768 777 787 795 797 800 799 787 785 786 779 793 806 799 802 806 801 799 797 796 798 799 798 798 800 799 799 800 798 797 797 795
811 808 804 801 797 793 790 788 786 784 781 780 778 779 781 780 782 780 777 778 766 757 761 757 757 761 753 750 750 748 754 759 756 749 747 747 751 763 766 766 779 784 775 773 779 781 787 792 780 765 762 764 764 762 762 764 769 779 785 794 800 797 794 789 785 784 780 792 806 801 803 806 800 798 798 797 797 797 796 795 796 796 797 799 798 797 797 795
811 807 804 800 796 792 789 787 785 783 782 780 779 780 779 777 777 774 776 783 773 757 757 757 758 759 753 752 748 747 757 762 763 756 745 749 756 761 767 772 779 780 778 780 786 795 798 785 767 759 759 765 767 763 763 765 771 780 785 794 800 791 794 801 794 787 782 788 801 804 805 806 802 801 801 798 796 795 796 795 795 796 796 797 796 796 796 796
809 806 804 799 795 792 787 786 784 783 782 780 780 779 777 777 776 774 775 782 780 761 752 751 752 754 752 749 744 748 757 755 758 755 744 750 758 759 765 771 777 782 780 779 782 791 790 771 758 759 761 764 769 768 766 771 778 780 780 788 793 788 787 792 790 787 786 792 797 803 815 815 807 810 809 802 799 799 799 798 798 797 795 795 795 795 795 794
808 806 803 799 796 791 786 785 783 783 782 780 780 778 777 777 775 774 777 786 787 766 751 748 749 749 744 744 745 746 752 753 751 748 741 745 754 761 765 764 773 785 781 777 782 787 781 763 757 764 765 763 769 771 766 769 780 782 776 775 779 780 781 783 787 790 803 813 802 800 827 831 813 813 815 807 805 806 803 801 801 799 797 796 796 795 794 793
807 805 802 800 796 790 786 784 783 784 782 779 779 777 777 776 775 774 780 796 795 770 757 755 753 750 742 745 744 743 760 761 743 739 740 742 745 752 766 766 768 778 775 772 778 779 771 758 757 766 768 766 769 768 759 760 778 784 770 763 767 772 777 784 789 796 812 818 800 794 821 836 823 817 815 810 811 811 806 805 802 800 799 797 797 795 794 793
806 803 801 800 796 793 790 787 786 786 783 781 778 777 777 774 775 774 783 809 802 767 760 761 754 750 744 743 740 750 774 763 741 740 738 741 742 745 766 773 769 772 763 768 783 776 763 760 763 764 766 768 770 768 757 756 777 780 759 755 766 770 776 783 788 797 802 802 801 797 807 828 832 821 813 811 815 815 810 807 804 801 800 798 796 795 793 792
805 802 800 798 796 796 793 790 789 785 783 781 777 777 776 773 775 775 793 820 798 758 756 758 747 743 741 741 740 751 762 752 755 755 733 737 745 747 768 771 770 773 760 772 793 775 759 765 767 764 769 771 765 760 752 754 771 768 749 750 759 763 772 779 789 797 794 802 818 809 802 826 837 821 812 813 817 820 814 809 805 801 800 799 796 795 792 791
802 800 798 796 794 793 791 790 788 784 781 779 777 778 774 773 775 779 802 814 782 753 753 752 747 746 745 747 748 750 750 749 761 753 734 741 744 746 764 764 763 772 763 769 784 771 758 758 755 760 770 768 757 749 746 752 763 755 743 747 751 757 765 775 791 797 796 814 828 812 803 827 841 826 818 821 820 819 814 807 804 801 799 798 796 795 793 791
800 798 797 794 791 790 790 787 783 781 780 778 779 775 772 775 780 797 817 804 774 760 755 752 754 753 753 760 760 756 755 756 753 747 745 749 746 746 753 751 756 768 768 766 769 765 755 746 745 752 758 754 748 746 743 747 751 745 746 754 759 764 767 778 790 791 807 828 824 807 800 816 836 830 818 818 812 806 807 806 804 801 799 799 797 795 794 793
797 795 794 792 790 789 788 784 780 780 780 779 778 773 775 781 789 813 815 781 766 767 759 758 759 754 758 767 768 762 760 759 752 754 760 756 756 759 759 761 765 773 779 775 769 764 756 753 752 746 742 741 745 749 746 743 744 745 754 764 774 781 781 792 797 796 823 838 818 804 800 809 831 827 809 805 797 794 800 803 803 802 801 799 797 795 794 793
794 792 791 790 787 786 785 781 778 780 779 778 777 774 782 795 803 812 796 769 771 773 762 762 761 757 762 766 767 764 763 764 756 757 764 764 768 768 769 775 776 785 795 788 780 774 765 761 755 745 737 736 748 760 758 751 749 755 764 775 792 804 806 815 816 813 830 831 811 803 803 814 827 815 799 797 793 792 795 795 798 800 800 799 797 796 795 794
792 788 786 785 784 781 778 777 777 779 778 776 778 778 789 809 809 797 785 776 774 764 754 758 757 757 763 767 769 763 763 766 759 757 761 764 771 771 768 768 767 783 794 788 788 787 779 766 755 754 748 735 745 767 775 769 764 767 773 782 799 812 824 835 830 826 833 826 811 803 805 823 828 808 795 794 790 790 790 790 793 794 796 798 797 797 797 796
789 785 782 779 778 776 773 775 775 777 777 776 780 786 798 810 799 783 780 774 762 754 753 755 757 760 764 768 767 760 766 769 759 760 765 767 776 778 773 768 764 772 782 786 790 790 795 788 765 759 756 742 744 757 764 766 768 768 765 773 791 798 810 825 825 829 836 828 816 807 812 830 830 808 793 788 786 786 788 789 791 792 794 796 797 798 799 799
786 783 779 775 774 773 772 774 774 776 778 778 785 796 804 805 792 782 777 764 754 755 754 752 757 768 771 768 762 755 762 769 760 762 769 771 778 779 774 771 765 767 778 792 790 781 794 791 760 747 745 741 747 746 742 757 773 768 759 772 786 780 783 799 809 814 821 826 824 819 820 820 811 799 789 787 788 788 790 792 794 797 797 797 800 800 799 800
783 779 775 772 771 771 772 774 774 775 777 781 792 801 801 794 785 778 767 756 755 756 759 762 763 774 779 772 767 759 757 762 764 768 771 771 773 773 770 766 760 763 772 784 786 781 792 786 755 747 746 738 742 742 736 754 772 769 768 776 771 758 765 792 812 807 809 832 835 825 825 817 808 806 796 790 795 794 795 797 797 800 799 800 802 801 800 801
782 778 774 770 769 770 772 773 774 775 777 784 798 800 793 783 772 766 757 752 754 752 761 774 769 771 779 777 772 765 761 763 765 770 774 774 772 767 765 760 753 755 758 767 776 774 783 786 760 751 758 742 731 738 738 739 752 767 776 767 754 756 761 781 813 820 823 845 841 825 829 827 824 823 806 798 803 802 800 800 800 802 801 803 804 801 801 800
784 781 775 770 768 769 771 773 774 776 779 789 802 798 788 778 764 756 753 752 753 750 759 774 768 764 772 777 772 763 764 771 770 771 774 776 770 758 758 758 750 748 747 755 771 766 771 789 770 749 755 746 731 744 755 744 739 753 759 749 755 780 783 782 806 822 833 852 847 833 832 828 824 820 809 807 809 805 804 802 802 804 804 804 804 803 803 802
787 785 778 770 769 769 772 774 773 777 784 796 804 794 782 774 760 751 750 751 751 752 760 767 762 761 766 769 768 762 764 769 769 771 773 775 770 752 747 752 748 746 744 748 765 763 764 788 783 753 745 747 744 757 771 764 749 746 749 749 757 773 781 783 791 803 823 845 849 844 841 829 814 804 802 806 805 803 805 804 804 805 804 805 805 805 806 806
790 790 782 771 771 772 771 773 776 783 791 796 797 789 779 773 761 747 744 748 748 748 756 759 757 762 764 760 760 759 760 763 763 768 768 767 767 754 743 745 746 744 743 746 756 760 763 781 787 765 748 756 764 763 764 765 760 759 763 768 767 765 768 776 782 789 806 830 844 851 850 828 799 788 793 797 797 798 801 803 804 803 803 804 804 805 806 806
793 795 784 771 772 774 773 779 784 788 793 793 790 785 778 772 763 751 742 741 741 738 742 748 753 758 759 758 758 754 756 761 759 763 763 760 763 758 742 737 740 741 747 754 757 759 765 773 780 776 767 769 766 749 744 748 750 757 765 767 768 768 772 786 796 793 793 810 827 839 844 822 789 780 785 788 792 794 795 799 803 803 804 806 805 804 803 803
799 797 783 772 775 775 777 787 788 787 791 789 784 779 772 767 763 755 745 740 740 735 734 741 748 751 753 756 755 751 754 759 757 758 757 753 754 752 736 728 731 734 743 757 755 747 752 763 774 778 772 765 752 736 735 739 739 747 755 755 760 766 771 788 803 800 797 805 810 819 830 815 784 776 781 785 788 790 792 796 801 805 806 805 804 802 800 800
804 797 778 771 774 773 782 794 790 787 788 781 774 770 765 764 761 756 750 746 742 739 740 745 747 749 751 752 751 751 752 755 754 752 751 748 742 736 729 725 729 732 740 752 752 742 747 763 776 779 769 757 746 736 733 735 739 750 753 749 753 761 763 771 782 788 799 809 808 818 832 816 786 778 782 784 786 789 792 795 801 808 807 804 803 801 800 799
807 801 782 773 772 773 785 796 793 791 787 778 775 770 762 759 757 754 752 748 743 743 748 750 748 749 750 747 748 750 751 756 754 745 744 747 738 727 723 722 725 732 738 744 744 743 755 770 777 785 788 781 773 766 758 749 748 754 756 751 750 755 760 769 774 781 799 808 804 816 832 816 790 783 784 787 789 792 796 798 800 805 804 803 804 802 800 799
806 801 788 777 772 773 782 786 786 790 788 783 781 775 767 760 751 745 746 745 741 742 748 750 746 746 745 744 747 747 747 755 757 747 742 744 736 726 723 721 722 728 731 731 731 737 754 768 771 784 800 803 799 792 779 765 758 759 762 759 755 754 761 772 779 789 804 808 803 811 821 810 794 791 792 793 794 797 801 801 800 799 801 802 803 803 802 799
809 803 795 786 777 777 781 779 781 788 789 789 787 777 772 768 752 739 740 745 743 740 743 746 743 744 746 746 752 754 750 751 754 750 746 743 738 728 722 721 723 725 726 725 726 734 752 762 763 771 782 785 783 775 762 757 765 772 772 766 760 757 760 769 780 793 801 806 810 809 805 805 805 801 799 798 798 802 804 803 801 801 801 802 802 802 800 798
814 810 806 803 794 789 788 783 784 789 787 789 789 778 772 771 760 747 743 746 746 742 743 744 744 750 756 755 758 761 757 752 751 752 750 743 736 729 723 723 725 725 725 725 726 736 755 764 760 762 766 763 761 758 752 756 769 775 774 770 765 761 762 770 782 788 790 801 817 809 797 806 812 804 802 802 801 803 803 801 801 802 801 802 801 800 798 799
814 810 806 808 807 805 801 792 789 791 786 785 785 777 774 772 766 760 754 748 745 745 750 752 749 752 757 757 761 765 763 760 758 757 755 748 740 736 732 729 727 724 725 729 729 734 755 766 758 758 762 756 754 757 756 763 773 774 773 772 768 765 768 774 782 784 783 795 811 807 801 811 813 805 803 801 798 800 801 799 799 799 800 800 799 798 800 801
815 813 807 806 809 810 806 797 792 791 788 785 783 777 774 774 769 763 757 755 753 749 754 762 757 751 753 753 758 765 767 768 768 762 757 753 746 743 743 741 733 725 726 734 733 733 751 763 757 757 761 758 760 763 759 764 773 775 775 773 770 771 775 778 783 785 785 795 803 802 807 813 810 804 802 798 796 798 799 799 798 798 799 797 796 796 798 798
819 819 815 812 812 808 802 796 793 793 789 785 785 779 773 775 773 763 755 759 764 758 755 761 759 751 751 753 756 762 760 761 767 762 755 757 753 746 746 746 739 732 732 738 738 737 749 761 756 754 763 768 769 767 764 768 773 777 779 775 772 776 780 784 789 789 793 804 804 802 811 817 809 802 800 798 797 799 802 803 801 799 798 795 795 796 797 800
822 821 818 819 817 808 801 795 793 795 793 788 789 784 778 777 773 764 756 753 757 759 755 755 756 751 750 751 754 756 750 748 755 752 746 752 751 743 742 741 737 738 740 741 742 741 749 759 755 756 774 783 775 772 774 774 776 783 787 782 779 782 786 791 793 791 796 806 808 810 819 821 810 802 801 800 800 803 806 805 802 801 798 796 797 800 803 807
822 821 818 820 819 809 803 799 795 797 795 790 789 785 781 778 769 763 763 754 747 749 748 748 752 753 754 755 753 748 742 740 741 738 734 737 736 731 733 733 730 735 740 742 746 745 748 757 759 764 783 791 780 775 775 778 793 806 798 786 785 786 786 790 793 794 794 798 806 814 816 811 805 802 803 804 804 806 806 803 802 802 801 800 801 803 807 808